Location: Chamerau
(49.1969°N, 12.7525°E)
Time: 23:19:08
(UTC+00:00)

ATLAS 2AS CENTAUR R/B - Pass Details

Date: 18 September 2020
Orbit: 939 x 1273 km, 63.7° (Epoch: 27 October)

Event Time Altitude Azimuth Distance (km) Brightness Sun altitude
Rises 21:02:42 0° 224° (SW) 4,203 5.7 -33.1°
Enters shadow 21:04:49 - 225° (SW) 3,480 5.3 -33.3°
Exits shadow 21:11:57 62° 242° (WSW) 1,414 3.2 -34.0°
Maximum altitude 21:13:28 80° 313° (NW) 1,292 3.0 -34.2°
Drops below altitude 10° 21:21:21 10° 41° (NE) 3,213 5.3 -34.9°
Sets 21:24:05 0° 43° (NE) 4,149 6.0 -35.1°
